Location: *
(49.3500°N, 12.6000°E)
Time: 13:09:58
(UTC+00:00)

STARLINK-36 - Pass Details

Date: 18 October 2019
Orbit: 549 x 551 km, 53.0° (Epoch: 21 November)

Event Time Altitude Azimuth Distance (km) Brightness Sun altitude
Rises 18:33:50 0° 278° (W) 2,718 8.6 -23.4°
Reaches altitude 10° 18:36:07 10° 284° (WNW) 1,825 7.4 -23.8°
Enters shadow 18:39:59 49° 351° (N) 713 4.2 -24.4°
